Content
SEND FEEDBACK

Daily
Averages
Monthly
Summary
United States of America

SOUTHPORT, NORTH CAROLINA


Home > North America > United States > North Carolina
Elevation: 38 feet     Latitude: 34 00N     Longitude: 078 01W

WEATHER
 
SELECT A DAY
Number of Records: 147,734;   Date Range: 8/21/01 - 12/16/14
 
SHARE

PRINT THIS DATA

[ ← Previous Day ]
WEATHER ALMANAC - MARCH 4, 2014
[ Next Day → ]
[ °C ]   °F
Weather ElementAverageHighLow
Temperature30.6 °F35.1 °F (4:15 pm)25.7 °F (7:35 am)
Dewpoint24.5 °F28.9 °F (9:35 pm)19.6 °F (7:35 am)
Humidity78.1 %84 % (12:35 am)72 % (12:35 pm)
Barometer30.21 in30.27 in (8:35 am)30.17 in (12:35 am)
Wind Speed10.4 mph16.1 mph (12:55 am)
Wind Gust21.9 mph (12:35 am)
Weather ElementAverage
Visibility10 mi
Wind DirectionSSE (154.9 °)

Weather ElementTotal
Precipitation---
Heating Degree Days34.6 (Base 65)
Averaged from 71 records on March 4, 2014
WEATHER CONDITIONS BREAKOUT
WIND DIRECTION BREAKOUT
WEATHER BY HOUR - MARCH 4, 2014
[ °C ]   °F
Local TimeTemperatureDewpointHumidityBarometerVisibilityWind DirectionWind SpeedGust SpeedPrecipitationEventsConditions
12:35 AM31.5 °F27.1 °F84 %30.17 in10.0 miNorth (10°)15.0 mph21.9 mphOvercast
12:55 AM30.4 °F25.9 °F83 %30.17 in10.0 miNorth (10°)16.1 mph20.7 mphOvercast
1:15 AM29.8 °F24.8 °F81 %30.17 in10.0 miNorth (360°)15.0 mph18.4 mphOvercast
1:35 AM29.3 °F24.3 °F81 %30.18 in10.0 miNNE (30°)13.8 mph20.7 mphOvercast
1:55 AM29.1 °F23.4 °F79 %30.19 in10.0 miNNE (20°)10.4 mph21.9 mphOvercast
2:15 AM29.1 °F23.4 °F79 %30.19 in10.0 miNNE (20°)15.0 mph21.9 mphOvercast
2:35 AM29.1 °F23.7 °F80 %30.18 in10.0 miNorth (10°)15.0 mph21.9 mphOvercast
2:55 AM28.4 °F23.0 °F80 %30.19 in10.0 miNNE (20°)11.5 mph19.6 mphOvercast
3:15 AM28.0 °F22.6 °F80 %30.19 in10.0 miNorth (10°)13.8 mph19.6 mphOvercast
3:35 AM27.9 °F22.8 °F81 %30.19 in10.0 miNorth (10°)13.8 mphOvercast
4:00 AM27.3 °F22.3 °F81 %30.19 in10.0 miNorth (10°)10.4 mph18.4 mphOvercast
4:15 AM27.1 °F21.9 °F81 %30.21 in10.0 miNNE (20°)15.0 mph20.7 mphOvercast
4:35 AM27.1 °F22.1 °F81 %30.21 in10.0 miNorth (10°)13.8 mph19.6 mphOvercast
4:55 AM27.0 °F22.1 °F82 %30.22 in10.0 miNorth (10°)11.5 mphOvercast
5:15 AM27.0 °F22.1 °F82 %30.23 in10.0 miNNE (20°)12.7 mphOvercast
5:35 AM27.0 °F21.7 °F81 %30.24 in10.0 miNNE (20°)9.2 mph16.1 mphOvercast
5:55 AM27.0 °F21.4 °F79 %30.24 in10.0 miNorth (10°)15.0 mphOvercast
6:15 AM26.6 °F20.8 °F79 %30.23 in10.0 miNorth (360°)13.8 mphOvercast
6:35 AM26.1 °F20.1 °F78 %30.25 in10.0 miNorth (10°)9.2 mphOvercast
6:55 AM26.1 °F20.1 °F78 %30.24 in10.0 miNorth (10°)9.2 mphOvercast
7:15 AM25.9 °F19.8 °F78 %30.23 in10.0 miNNE (30°)9.2 mph17.3 mphOvercast
7:35 AM25.7 °F19.6 °F78 %30.24 in10.0 miNorth (360°)10.4 mphOvercast
7:55 AM26.2 °F19.6 °F76 %30.25 in10.0 miNorth (360°)12.7 mphOvercast
8:15 AM26.6 °F19.6 °F75 %30.26 in10.0 miNNE (20°)11.5 mphOvercast
8:35 AM26.6 °F19.8 °F75 %30.27 in10.0 miNorth (360°)10.4 mphOvercast
8:55 AM26.6 °F19.6 °F75 %30.27 in10.0 miNorth (10°)10.4 mphOvercast
9:15 AM27.0 °F19.6 °F74 %30.27 in10.0 miNorth (350°)10.4 mphOvercast
9:35 AM27.3 °F20.1 °F74 %30.26 in10.0 miNorth (10°)10.4 mphOvercast
9:55 AM27.3 °F20.3 °F75 %30.27 in10.0 miNorth (360°)10.4 mphOvercast
10:15 AM27.3 °F20.3 °F75 %30.26 in10.0 miNorth (350°)11.5 mphOvercast
10:35 AM28.4 °F21.0 °F74 %30.26 in10.0 miNorth (10°)10.4 mph16.1 mphOvercast
10:55 AM28.4 °F21.2 °F74 %30.26 in10.0 miNorth (360°)11.5 mphOvercast
11:15 AM28.4 °F21.2 °F74 %30.26 in10.0 miNorth (10°)12.7 mph16.1 mphOvercast
11:35 AM28.6 °F21.4 °F74 %30.26 in10.0 miNorth (360°)11.5 mphOvercast
11:55 AM29.3 °F22.1 °F75 %30.25 in10.0 miNorth (10°)9.2 mphOvercast
12:15 PM30.6 °F23.0 °F74 %30.24 in10.0 miNorth (10°)9.2 mphOvercast
12:35 PM31.1 °F23.2 °F72 %30.23 in10.0 miNorth (10°)9.2 mph17.3 mphOvercast
12:55 PM31.6 °F23.5 °F72 %30.23 in10.0 miNorth (10°)11.5 mphOvercast
1:15 PM32.0 °F24.4 °F74 %30.23 in10.0 miNorth (350°)12.7 mphOvercast
1:35 PM32.0 °F23.9 °F72 %30.21 in10.0 miNorth (350°)12.7 mph18.4 mphOvercast
1:55 PM32.0 °F24.1 °F73 %30.21 in10.0 miNorth (360°)10.4 mphOvercast
2:15 PM32.2 °F24.4 °F73 %30.21 in10.0 miNorth (350°)8.1 mphOvercast
2:35 PM32.5 °F24.8 °F73 %30.20 in10.0 miNorth (360°)10.4 mphOvercast
2:55 PM33.3 °F25.7 °F74 %30.19 in10.0 miNorth (350°)12.7 mph18.4 mphOvercast
3:15 PM33.8 °F25.7 °F72 %30.18 in10.0 miNorth (10°)12.7 mph17.3 mphOvercast
3:35 PM34.0 °F26.1 °F73 %30.19 in10.0 miNorth (10°)9.2 mph16.1 mphOvercast
3:55 PM33.8 °F26.2 °F74 %30.19 in10.0 miNorth (350°)8.1 mphOvercast
4:15 PM35.1 °F27.3 °F73 %30.17 in10.0 miNorth (360°)11.5 mphOvercast
4:35 PM34.3 °F27.3 °F76 %30.17 in10.0 miNorth (360°)10.4 mphOvercast
4:55 PM34.0 °F27.3 °F77 %30.18 in10.0 miNorth (360°)9.2 mphOvercast
5:15 PM34.7 °F28.0 °F77 %30.18 in10.0 miNorth (350°)9.2 mphOvercast
5:35 PM34.5 °F28.6 °F79 %30.18 in10.0 miNorth (360°)10.4 mphOvercast
5:55 PM33.8 °F28.4 °F81 %30.19 in10.0 miNorth (360°)10.4 mph16.1 mphMostly Cloudy
6:15 PM33.8 °F28.4 °F81 %30.20 in10.0 miNorth (360°)6.9 mphMostly Cloudy
6:35 PM33.8 °F28.4 °F81 %30.19 in10.0 miNorth (10°)9.2 mphOvercast
6:55 PM33.4 °F28.8 °F83 %30.19 in10.0 miNorth (10°)10.4 mphOvercast
7:15 PM33.6 °F28.8 °F82 %30.21 in10.0 miNorth (360°)5.8 mphOvercast
7:35 PM33.8 °F28.4 °F81 %30.21 in10.0 miNorth (360°)8.1 mphOvercast
7:55 PM33.8 °F28.2 °F80 %30.21 in10.0 miNorth (10°)8.1 mphOvercast
8:15 PM33.8 °F28.0 °F79 %30.21 in10.0 miNorth (360°)8.1 mphOvercast
8:35 PM33.8 °F28.0 °F79 %30.21 in10.0 miNorth (360°)6.9 mphOvercast
8:55 PM33.8 °F28.0 °F79 %30.21 in10.0 miNNE (20°)5.8 mphOvercast
9:15 PM33.8 °F28.4 °F81 %30.21 in10.0 miNNE (20°)8.1 mphOvercast
9:35 PM33.8 °F28.9 °F82 %30.21 in10.0 miNE (50°)3.5 mphOvercast
9:55 PM33.4 °F28.9 °F84 %30.20 in10.0 miNNE (20°)8.1 mphOvercast
10:15 PM33.4 °F28.8 °F83 %30.19 in10.0 miNNE (30°)4.6 mphOvercast
10:35 PM33.6 °F28.8 °F82 %30.20 in10.0 miNorth (10°)8.1 mphMostly Cloudy
10:55 PM33.8 °F28.8 °F82 %30.21 in10.0 miNorth (360°)5.8 mphScattered Clouds
11:15 PM33.8 °F28.8 °F82 %30.20 in10.0 miNNE (20°)6.9 mphMostly Cloudy
11:35 PM33.4 °F28.8 °F83 %30.19 in10.0 miNNE (20°)6.9 mphMostly Cloudy
11:55 PM33.6 °F28.9 °F83 %30.19 in10.0 miNorth (10°)9.2 mphOvercast
Hourly data recorded from KSUT, located miles away from Southport, North Carolina







STORIES FROM OUR PARTNERS